OBJECT K, 57175

Orbit data source: Space-Track

You're viewing an uncataloged RSO

Recently launched and/or uncataloged RSOs may have evolving metadata. Metadata may include the following, but is not limited to: Owner, Manufacturer, Bus, Motor, and Mission.

OBJECT K, 57175 is a satellite in SSO that was launched on Tue, 27 Jun 2023 UTC via a SOYUZ-2-1B launch vehicle from the Vostochny Cosmodrome (VOSTO). Unknown objects in Earth's orbit typically refer to objects detected orbiting the Earth but have not yet been identified or cataloged. These objects could be anything from previously untracked satellites, spent rocket stages, debris from satellite collisions, or even natural meteoroids temporarily captured by Earth's gravity.

Loading next visibility...
Identifier
57175, 2023-091K
Orbit
SSO
Country
Flag of TBDTBD
Related business
Flag of BYBelarusian State University (BY)
Manufacturer
Belarus SU
Mission
Operational Amateur Communications
Bus & Motor
CUBESAT 3U, Unknown motor
Mass
4 kg wet, 4 kg dry
Launch date (UTC)
2023-06-27 (3 years ago)
Launch vehicle
SOYUZ-2-1B
Launch site
Vostochny Cosmodrome (VOSTO)
Object type
Unknown
Shape & HBR
Box, 0.2 m
Radar Cross Section
0.035 m², Medium (>0.1 m² and < 1m²)

Expand to show TLE details & history
Last TLE update: 9 hours ago

TLE from 9 hours ago
0 OBJECT K
1 57175U 23091K   26256.92498190  .00010518  00000-0  35249-3 0  9994
2 57175  97.4958 321.0173 0010119 153.0851 207.0917 15.31061793177873
Epoch: 2026-09-13T22:11Z
TLE epoch observation values (Epoch: 2026-09-13T22:11:58.436Z)
Latitude
0.00003°
Longitude
-4.88883°
Altitude
481.92 km
Speed
7.621 km/s
True Right ascension
21h 24m 04s
True Declination
0° 00' 00"
Sunlit
Object was in full shadow at epoch
Visualization orbit readout
Latitude
Unknown
Longitude
Unknown
Altitude
Unknown
Speed
Unknown
Apparent Right ascension
Unknown
Apparent Declination
Unknown
Sunlit
N/A
Visualization observer readout
Local Sidereal Time
23:28:04
Azimuth
Unknown
Elevation
Unknown
Doppler factor
Unknown
Orbital elements
Apogee altitude
476.527 km
Perigee altitude
462.669 km
Semi-major axis
6,847.735 km
Eccentricity
0.00101
Inclination
97.4958°
RAAN
321.0173°
Arg. of periapsis
153.0851°
True anomaly
207.03895°
Mean anomaly
207.0917°
Eccentric anomaly
207.06532°
Mean motion
3.83021 °/min
Orbital period
93.99 mins
BSTAR
0.00035249
Loading maneuver chart data...
Computing Atmospheric mass density...
Loading historical data...
Loading historical data...
Loading historical data...
Loading historical data...
Loading historical data...
Loading historical data...
Loading historical data...

Documentation

Showing up to 5 results
|